[keps] orb08045.amsat
Ray Hoad
r.hoad at att.net
Thu Feb 14 18:29:51 PST 2008
SB KEPS @ AMSAT $ORB08045.O
Orbital Elements 08045.OSCAR
HR AMSAT ORBITAL ELEMENTS FOR OSCAR SATELLITES
FROM WA5QGD FORT WORTH,TX February 14, 2008
Send Subscribe/unsubscribe to KEPS at
http://www.amsat.org/mailman/listinfo/keps
BID: ORB08045.O
TO ALL RADIO AMATEURS BT
Satellite: AO-07
Catalog number: 07530
Epoch time: 08044.71573374
Element set: 0104
Inclination: 101.4839 deg
RA of node: 080.3065 deg
Eccentricity: 0.0012074
Arg of perigee: 144.7709 deg
Mean anomaly: 215.4160 deg
Mean motion: 12.53573488 rev/day
Decay rate: -2.7e-07 rev/day^2
Epoch rev: 52138
Checksum: 279
Satellite: AO-10
Catalog number: 14129
Epoch time: 08040.55461412
Element set: 469
Inclination: 025.9289 deg
RA of node: 231.2610 deg
Eccentricity: 0.6031464
Arg of perigee: 097.3310 deg
Mean anomaly: 330.6746 deg
Mean motion: 02.05872724 rev/day
Decay rate: -1.98e-06 rev/day^2
Epoch rev: 18545
Checksum: 292
Satellite: UO-11
Catalog number: 14781
Epoch time: 08044.89054173
Element set: 0596
Inclination: 098.1697 deg
RA of node: 076.9718 deg
Eccentricity: 0.0010026
Arg of perigee: 111.7106 deg
Mean anomaly: 248.5111 deg
Mean motion: 14.79616544 rev/day
Decay rate: -6.4e-07 rev/day^2
Epoch rev: 28547
Checksum: 317
Satellite: RS-15
Catalog number: 23439
Epoch time: 08044.93397273
Element set: 0112
Inclination: 064.8225 deg
RA of node: 335.9774 deg
Eccentricity: 0.0150974
Arg of perigee: 146.4164 deg
Mean anomaly: 214.6440 deg
Mean motion: 11.27551375 rev/day
Decay rate: -3.9e-07 rev/day^2
Epoch rev: 54095
Checksum: 312
Satellite: FO-29
Catalog number: 24278
Epoch time: 08044.95554304
Element set: 0715
Inclination: 098.5838 deg
RA of node: 337.5091 deg
Eccentricity: 0.0350692
Arg of perigee: 177.0031 deg
Mean anomaly: 183.3324 deg
Mean motion: 13.52934875 rev/day
Decay rate: 1.5e-07 rev/day^2
Epoch rev: 56759
Checksum: 331
Satellite: SO-33
Catalog number: 25509
Epoch time: 08044.77046327
Element set: 131
Inclination: 031.4315 deg
RA of node: 299.8312 deg
Eccentricity: 0.0354453
Arg of perigee: 019.3584 deg
Mean anomaly: 342.0099 deg
Mean motion: 14.28196166 rev/day
Decay rate: 4.37e-06 rev/day^2
Epoch rev: 48581
Checksum: 310
Satellite: AO-40
Catalog number: 26609
Epoch time: 08045.39705915
Element set: 8
Inclination: 007.4019 deg
RA of node: 097.5622 deg
Eccentricity: 0.7925140
Arg of perigee: 051.7766 deg
Mean anomaly: 355.9138 deg
Mean motion: 01.25582521 rev/day
Decay rate: -4.20e-06 rev/day^2
Epoch rev: 3348
Checksum: 303
Satellite: VO-52
Catalog number: 28650
Epoch time: 08044.85731822
Element set: 0857
Inclination: 097.8032 deg
RA of node: 114.8061 deg
Eccentricity: 0.0027135
Arg of perigee: 183.8968 deg
Mean anomaly: 176.1984 deg
Mean motion: 14.81419969 rev/day
Decay rate: .00000000 rev/day^2
Epoch rev: 15019
Checksum: 318
Satellite: PO-63
Catalog number: 29712
Epoch time: 08045.77923746
Element set: 186
Inclination: 097.8911 deg
RA of node: 106.2110 deg
Eccentricity: 0.0015265
Arg of perigee: 064.1791 deg
Mean anomaly: 296.0978 deg
Mean motion: 14.80021710 rev/day
Decay rate: 5.23e-06 rev/day^2
Epoch rev: 5921
Checksum: 302
/EX
SB KEPS @ AMSAT $ORB08045.D
Orbital Elements 08045.MICROS
HR AMSAT ORBITAL ELEMENTS FOR THE MICROSATS
FROM WA5QGD FORT WORTH,TX February 14, 2008
Send Subscribe/unsubscribe to KEPS at
http://www.amsat.org/mailman/listinfo/keps
BID: ORB08045.D
TO ALL RADIO AMATEURS BT
Satellite: AO-16
Catalog number: 20439
Epoch time: 08045.51769315
Element set: 251
Inclination: 098.2186 deg
RA of node: 031.9774 deg
Eccentricity: 0.0010513
Arg of perigee: 180.6082 deg
Mean anomaly: 179.5093 deg
Mean motion: 14.31784087 rev/day
Decay rate: -5.0e-08 rev/day^2
Epoch rev: 94322
Checksum: 302
Satellite: LO-19
Catalog number: 20442
Epoch time: 08044.88683185
Element set: 0176
Inclination: 098.1948 deg
RA of node: 040.2657 deg
Eccentricity: 0.0011866
Arg of perigee: 180.4102 deg
Mean anomaly: 179.7063 deg
Mean motion: 14.32022950 rev/day
Decay rate: -2.3e-07 rev/day^2
Epoch rev: 94328
Checksum: 304
Satellite: AO-27
Catalog number: 22825
Epoch time: 08045.70724964
Element set: 898
Inclination: 098.3679 deg
RA of node: 010.4642 deg
Eccentricity: 0.0007584
Arg of perigee: 267.0748 deg
Mean anomaly: 092.9580 deg
Mean motion: 14.29231081 rev/day
Decay rate: 1.75e-06 rev/day^2
Epoch rev: 75013
Checksum: 329
Satellite: IO-26
Catalog number: 22826
Epoch time: 08045.57272901
Element set: 600
Inclination: 098.3603 deg
RA of node: 011.3010 deg
Eccentricity: 0.0008096
Arg of perigee: 263.9588 deg
Mean anomaly: 096.0681 deg
Mean motion: 14.29477856 rev/day
Decay rate: -1.8e-07 rev/day^2
Epoch rev: 75020
Checksum: 301
Satellite: PO-28
Catalog number: 22829
Epoch time: 08044.92021087
Element set: 0875
Inclination: 098.3506 deg
RA of node: 011.8011 deg
Eccentricity: 0.0008924
Arg of perigee: 235.1889 deg
Mean anomaly: 124.8458 deg
Mean motion: 14.30180296 rev/day
Decay rate: 7.8e-07 rev/day^2
Epoch rev: 75036
Checksum: 313
Satellite: GO-32
Catalog number: 25397
Epoch time: 08044.66681363
Element set: 0526
Inclination: 098.3815 deg
RA of node: 085.8809 deg
Eccentricity: 0.0000507
Arg of perigee: 205.4685 deg
Mean anomaly: 154.6490 deg
Mean motion: 14.23137863 rev/day
Decay rate: -1.16e-06 rev/day^2
Epoch rev: 49850
Checksum: 325
Satellite: MO-46
Catalog number: 26548
Epoch time: 08045.71533033
Element set: 23
Inclination: 064.5574 deg
RA of node: 152.3240 deg
Eccentricity: 0.0015124
Arg of perigee: 340.6692 deg
Mean anomaly: 019.3825 deg
Mean motion: 14.83227423 rev/day
Decay rate: 1.21e-06 rev/day^2
Epoch rev: 39950
Checksum: 277
Satellite: NO-44
Catalog number: 26931
Epoch time: 08044.81892356
Element set: 0806
Inclination: 067.0509 deg
RA of node: 245.0429 deg
Eccentricity: 0.0004639
Arg of perigee: 270.2935 deg
Mean anomaly: 089.7583 deg
Mean motion: 14.29511739 rev/day
Decay rate: -1.19e-06 rev/day^2
Epoch rev: 33263
Checksum: 325
Satellite: SO-50
Catalog number: 27607
Epoch time: 08044.55593860
Element set: 0529
Inclination: 064.5579 deg
RA of node: 072.1304 deg
Eccentricity: 0.0079994
Arg of perigee: 304.3113 deg
Mean anomaly: 055.0437 deg
Mean motion: 14.71326823 rev/day
Decay rate: 1.07e-06 rev/day^2
Epoch rev: 27663
Checksum: 309
Satellite: CO-55
Catalog number: 27844
Epoch time: 08044.69841038
Element set: 235
Inclination: 098.7186 deg
RA of node: 054.6801 deg
Eccentricity: 0.0010572
Arg of perigee: 112.8870 deg
Mean anomaly: 247.3421 deg
Mean motion: 14.20559845 rev/day
Decay rate: 3.0e-07 rev/day^2
Epoch rev: 23976
Checksum: 312
Satellite: CO-57
Catalog number: 27848
Epoch time: 08045.52519658
Element set: 190
Inclination: 098.7184 deg
RA of node: 054.6180 deg
Eccentricity: 0.0010518
Arg of perigee: 115.0728 deg
Mean anomaly: 245.1524 deg
Mean motion: 14.20372177 rev/day
Decay rate: 1.3e-07 rev/day^2
Epoch rev: 23985
Checksum: 308
Satellite: AO-51
Catalog number: 28375
Epoch time: 08044.93097368
Element set: 0031
Inclination: 098.0849 deg
RA of node: 076.4107 deg
Eccentricity: 0.0083537
Arg of perigee: 169.1578 deg
Mean anomaly: 191.1439 deg
Mean motion: 14.40596473 rev/day
Decay rate: 2.0e-08 rev/day^2
Epoch rev: 19051
Checksum: 323
Satellite: CO-56
Catalog number: 28941
Epoch time: 08045.73916275
Element set: 847
Inclination: 098.1022 deg
RA of node: 140.2966 deg
Eccentricity: 0.0189554
Arg of perigee: 127.6684 deg
Mean anomaly: 234.1900 deg
Mean motion: 15.50300123 rev/day
Decay rate: 3.1676e-04 rev/day^2
Epoch rev: 11087
Checksum: 314
Satellite: NO-61
Catalog number: 29664
Epoch time: 07359.16654419
Element set: 738
Inclination: 051.6179 deg
RA of node: 150.0690 deg
Eccentricity: 0.0003189
Arg of perigee: 248.8461 deg
Mean anomaly: 111.8136 deg
Mean motion: 16.51627846 rev/day
Decay rate: 1.4620719e-01 rev/day^2
Epoch rev: 5877
Checksum: 345
Satellite: CP4
Catalog number: 31122
Epoch time: 08044.69905700
Element set: 0262
Inclination: 098.0552 deg
RA of node: 114.8347 deg
Eccentricity: 0.0085727
Arg of perigee: 356.4010 deg
Mean anomaly: 003.6548 deg
Mean motion: 14.55086994 rev/day
Decay rate: 5.50e-06 rev/day^2
Epoch rev: 04397
Checksum: 299
Satellite: CP3
Catalog number: 31128
Epoch time: 08044.66905569
Element set: 0257
Inclination: 098.0526 deg
RA of node: 113.2908 deg
Eccentricity: 0.0103003
Arg of perigee: 000.5336 deg
Mean anomaly: 359.6098 deg
Mean motion: 14.51913171 rev/day
Decay rate: -4.8e-07 rev/day^2
Epoch rev: 04386
Checksum: 289
Satellite: LIBERT
Catalog number: 31129
Epoch time: 08045.82221204
Element set: 751
Inclination: 098.0546 deg
RA of node: 114.4264 deg
Eccentricity: 0.0102328
Arg of perigee: 356.8409 deg
Mean anomaly: 003.2122 deg
Mean motion: 14.52003615 rev/day
Decay rate: 3.37e-06 rev/day^2
Epoch rev: 4401
Checksum: 240
/EX
SB KEPS @ AMSAT $ORB08045.W
Orbital Elements 08045.WEATHER
HR AMSAT ORBITAL ELEMENTS FOR WEATHER SATELLITES
FROM WA5QGD FORT WORTH,TX February 14, 2008
Send Subscribe/unsubscribe to KEPS at
http://www.amsat.org/mailman/listinfo/keps
BID: ORB08045.W
TO ALL RADIO AMATEURS BT
Satellite: NOAA-10
Catalog number: 16969
Epoch time: 08044.58809267
Element set: 0006
Inclination: 098.7329 deg
RA of node: 066.7448 deg
Eccentricity: 0.0012158
Arg of perigee: 181.1943 deg
Mean anomaly: 178.9226 deg
Mean motion: 14.27350550 rev/day
Decay rate: 5.3e-07 rev/day^2
Epoch rev: 11366
Checksum: 319
Satellite: NOAA-11
Catalog number: 19531
Epoch time: 08044.84635882
Element set: 0041
Inclination: 098.7990 deg
RA of node: 135.9082 deg
Eccentricity: 0.0012215
Arg of perigee: 064.8596 deg
Mean anomaly: 295.3846 deg
Mean motion: 14.14865298 rev/day
Decay rate: -3.6e-07 rev/day^2
Epoch rev: 00032
Checksum: 316
Satellite: NOAA-12
Catalog number: 21263
Epoch time: 08044.89685847
Element set: 0547
Inclination: 098.7661 deg
RA of node: 046.8696 deg
Eccentricity: 0.0013283
Arg of perigee: 124.3161 deg
Mean anomaly: 235.9258 deg
Mean motion: 14.25516281 rev/day
Decay rate: 4.5e-07 rev/day^2
Epoch rev: 87068
Checksum: 333
